• Join FlightAware (Why Join?)
  • Login
  • US Flag 
06:59AM EDT


 

Airport Tracker/Info


-or-


 

Live Flight TrackerFlight Track Log ✈ TRS501 ✈ 07-May-2013 ✈ KATL - KBUF

Flight Track Log - Related Links

Times and Time Zones

All times are in EDT time to prevent confusion due to time zone crossing. See the TRS501 flight status page for this flight to view local times or setup timezone preferences in your user account.

Time Position Orientation Groundspeed Altitude Reporting Facility
EDT Latitude Longitude Course Direction KTS MPH feet Rate Location/Type
09:16AM 33.6500 -84.4833 301° West 176 203 3,000  Level Atlanta TRACON
09:17AM 33.6833 -84.5500 301° West 273 314 6,500 2,580 Climbing Atlanta TRACON
09:19AM 33.8203 -84.5739 352° North 302 348 10,700 2,640 Climbing Atlanta Center
09:20AM 33.8747 -84.4942 51° Northeast 309 356 14,300 3,540 Climbing Atlanta Center
09:21AM 33.9439 -84.4044 47° Northeast 328 377 17,800 3,480 Climbing Atlanta Center
09:22AM 34.0381 -84.3672 18° North 352 405 21,300 3,240 Climbing Atlanta Center
09:23AM 34.1403 -84.3325 16° North 361 415 24,300 2,700 Climbing Atlanta Center
09:24AM 34.2447 -84.2975 15° North 380 437 26,800 2,340 Climbing Atlanta Center
09:25AM 34.3575 -84.2653 13° North 401 461 29,000 2,160 Climbing Atlanta Center
09:26AM 34.4725 -84.2378 11° North 416 479 31,200 2,100 Climbing Atlanta Center
09:27AM 34.5894 -84.2103 11° North 428 493 33,200 1,620 Climbing Atlanta Center
09:28AM 34.7061 -84.1853 10° North 428 493 34,500 1,320 Climbing Atlanta Center
09:29AM 34.8272 -84.1553 11° North 433 498 35,900 1,620 Climbing Atlanta Center
09:30AM 34.9525 -84.1275 10° North 438 504 37,800 1,500 Climbing Atlanta Center
09:31AM 35.0756 -84.0972 11° North 444 511 38,900 1,200 Climbing Atlanta Center
09:32AM 35.1989 -84.0692 11° North 451 519 40,300 1,020 Climbing Atlanta Center
09:33AM 35.3239 -84.0361 12° North 451 519 41,000 300 Climbing Atlanta Center
09:34AM 35.4469 -84.0056 11° North 451 519 41,000  Level Atlanta Center
09:35AM 35.5742 -83.9775 10° North 451 519 41,000  Level Atlanta Center
09:36AM 35.6994 -83.9467 11° North 451 519 41,000  Level Atlanta Center
09:37AM 35.8225 -83.9158 11° North 451 519 41,000  Level Atlanta Center
09:38AM 35.9433 -83.8719 16° North 446 513 41,000  Level Atlanta Center
09:39AM 36.0558 -83.8000 27° Northeast 446 513 41,000  Level Atlanta Center
09:41AM 36.2756 -83.6600 27° Northeast 447 514 41,000  Level Indianapolis Center
09:42AM 36.3869 -83.5883 27° Northeast 452 520 41,000  Level Indianapolis Center
09:43AM 36.4986 -83.5164 27° Northeast 453 521 41,000  Level Indianapolis Center
09:44AM 36.6194 -83.4419 26° Northeast 459 528 41,000  Level Indianapolis Center
09:45AM 36.7506 -83.3544 28° Northeast 456 525 41,000  Level Indianapolis Center
09:46AM 36.8644 -83.2817 27° Northeast 454 522 41,000  Level Indianapolis Center
09:47AM 36.9797 -83.2078 27° Northeast 460 529 41,000  Level Indianapolis Center
09:48AM 37.0947 -83.1331 27° Northeast 458 527 41,000  Level Indianapolis Center
09:49AM 37.2086 -83.0581 28° Northeast 457 526 41,000  Level Indianapolis Center
09:50AM 37.3222 -82.9831 28° Northeast 456 525 41,000  Level Indianapolis Center
09:51AM 37.4336 -82.9086 28° Northeast 452 520 41,000  Level Indianapolis Center
09:52AM 37.5439 -82.8347 28° Northeast 447 514 41,000  Level Indianapolis Center
09:53AM 37.6747 -82.7486 28° Northeast 453 521 41,000  Level Indianapolis Center
09:54AM 37.7853 -82.6747 28° Northeast 449 517 41,000  Level Indianapolis Center
09:55AM 37.8958 -82.6014 28° Northeast 450 518 41,000  Level Indianapolis Center
09:57AM 38.0053 -82.5275 28° Northeast 446 513 41,000  Level Indianapolis Center
09:58AM 38.1108 -82.4550 28° Northeast 445 512 41,000  Level Indianapolis Center
09:59AM 38.2194 -82.3819 28° Northeast 442 509 41,000  Level Indianapolis Center
10:00AM 38.3519 -82.2931 28° Northeast 446 513 41,000  Level Indianapolis Center
10:01AM 38.4617 -82.2183 28° Northeast 446 513 41,000  Level Indianapolis Center
10:02AM 38.5725 -82.1431 28° Northeast 448 516 41,000  Level Indianapolis Center
10:03AM 38.6844 -82.0658 28° Northeast 452 520 41,000  Level Indianapolis Center
10:04AM 38.7953 -81.9900 28° Northeast 448 516 41,000  Level Indianapolis Center
10:05AM 38.9067 -81.9117 29° Northeast 451 519 41,000  Level Indianapolis Center
10:06AM 39.0178 -81.8364 28° Northeast 447 514 41,000  Level Indianapolis Center
10:07AM 39.1289 -81.7589 28° Northeast 449 517 41,000  Level Indianapolis Center
10:08AM 39.2400 -81.6806 29° Northeast 453 521 41,000  Level Indianapolis Center
10:09AM 39.3739 -81.5858 29° Northeast 453 521 41,000  Level Indianapolis Center
10:10AM 39.4847 -81.5078 29° Northeast 452 520 41,000  Level Indianapolis Center
10:11AM 39.5969 -81.4300 28° Northeast 455 524 41,000  Level Indianapolis Center
10:12AM 39.6703 -81.3758 30° Northeast 466 536 41,000  Level Cleveland Center
10:13AM 39.7792 -81.3017 28° Northeast 452 520 41,000 -120 Level Cleveland Center
10:14AM 39.8903 -81.2217 29° Northeast 452 520 40,800 -600 Descending Cleveland Center
10:14AM 39.9328 -81.1897 30° Northeast 459 528 40,200 -1,800 Descending Indianapolis Center
10:15AM 40.0572 -81.1000 29° Northeast 450 518 38,200 -1,620 Descending Indianapolis Center
10:16AM 40.1078 -81.0636 29° Northeast 447 514 37,700 -1,020 Descending Cleveland Center
10:17AM 40.2103 -80.9908 28° Northeast 434 499 36,700 -960 Descending Cleveland Center
10:18AM 40.3128 -80.9125 30° Northeast 421 484 35,800 -960 Descending Cleveland Center
10:19AM 40.4275 -80.8342 27° Northeast 416 479 34,800 -2,100 Descending Cleveland Center
10:20AM 40.5319 -80.7581 29° Northeast 416 479 31,600 -1,920 Descending Cleveland Center
10:21AM 40.6361 -80.6817 29° Northeast 416 479 31,000 -300 Descending Cleveland Center
10:22AM 40.7364 -80.6078 29° Northeast 416 479 31,000  Level Cleveland Center
10:23AM 40.8406 -80.5308 29° Northeast 416 479 31,000 -300 Level Cleveland Center
10:24AM 40.9447 -80.4511 30° Northeast 416 479 30,400 -840 Descending Cleveland Center
10:25AM 41.0447 -80.3767 29° Northeast 416 479 29,400 -1,020 Descending Cleveland Center
10:26AM 41.1467 -80.3019 29° Northeast 416 479 28,400 -1,020 Descending Cleveland Center
10:27AM 41.2444 -80.2297 29° Northeast 410 472 27,400 -1,020 Descending Cleveland Center
10:28AM 41.3422 -80.1572 29° Northeast 410 472 26,400 -1,020 Descending Cleveland Center
10:29AM 41.4397 -80.0817 30° Northeast 405 466 25,400 -1,080 Descending Cleveland Center
10:30AM 41.5353 -80.0117 29° Northeast 400 460 24,300 -720 Descending Cleveland Center
10:31AM 41.6183 -79.9472 30° Northeast 390 449 24,000 -180 Descending Cleveland Center
10:32AM 41.7119 -79.8767 29° Northeast 390 449 24,000  Level Cleveland Center
10:33AM 41.8072 -79.8058 29° Northeast 390 449 24,000  Level Cleveland Center
10:34AM 41.8986 -79.7322 31° Northeast 385 443 24,000 -300 Level Cleveland Center
10:35AM 41.9939 -79.6611 29° Northeast 385 443 23,400 -1,500 Descending Cleveland Center
10:36AM 42.0850 -79.5900 30° Northeast 380 437 21,100 -2,220 Descending Cleveland Center
10:37AM 42.1739 -79.5214 30° Northeast 370 426 19,000 -2,100 Descending Cleveland Center
10:38AM 42.2589 -79.4553 30° Northeast 358 412 16,900 -2,160 Descending Cleveland Center
10:39AM 42.3417 -79.3922 29° Northeast 347 399 14,700 -2,220 Descending Cleveland Center
10:40AM 42.4200 -79.3261 32° Northeast 337 388 12,500 -2,280 Descending Cleveland Center
10:41AM 42.4942 -79.2483 38° Northeast 337 388 10,200 -1,800 Descending Cleveland Center
10:42AM 42.5600 -79.1739 40° Northeast 302 348 8,900 -1,440 Descending Cleveland Center
10:43AM 42.6217 -79.1075 38° Northeast 279 321 7,400 -1,500 Descending Cleveland Center
10:44AM 42.6708 -79.0469 42° Northeast 274 315 6,000 -1,320 Descending Cleveland Center
10:45AM 42.7347 -78.9778 38° Northeast 268 308 4,800 -780 Descending Cleveland Center
10:46AM 42.7839 -78.9225 40° Northeast 251 289 4,500 -840 Descending Cleveland Center
10:48AM 42.8833 -78.8167 38° Northeast 160 184 2,200 -960 Descending Buffalo TRACON
10:49AM 42.9000 -78.7833 56° Northeast 120 138 1,500 -660 Descending Buffalo TRACON
10:50AM 42.9333 -78.7500 36° Northeast 124 143 900 -600 Descending Buffalo TRACON
10:52AM 42.9404 -78.7306 289° West  Level Estimated